FW8536 Weather Reports


time (UTC)temp
C
wind
direction
speed
KPH
gust
KPH
rain 1hr
cm
rain 24hr
cm
rain mn
cm
humidity
%
barometer
mb
20260504035552 15 355 24.1 37.0 0.00 0.00 0.00 38 989.4
20260504035051 16 355 25.7 40.2 0.00 0.00 0.00 38 989.4
20260504034551 16 11 30.6 51.5 0.00 0.00 0.00 37 989.2
20260504034047 17 360 35.4 56.3 0.00 0.00 0.00 36 989.2
20260504033047 17 360 27.4 46.7 0.00 0.00 0.00 36 988.4
20260504032545 17 360 20.9 29.0 0.00 0.00 0.00 37 988.0
20260504032045 17 360 19.3 25.7 0.00 0.00 0.00 37 988.0
20260504031603 17 360 20.9 29.0 0.00 0.00 0.00 37 987.9
20260504031043 17 360 20.9 30.6 0.00 0.00 0.00 37 987.9
20260504030543 17 360 20.9 30.6 0.00 0.00 0.00 37 988.0
20260504030043 17 360 20.9 29.0 0.00 0.00 0.00 37 988.0
20260504025540 17 284 19.3 25.7 0.00 0.00 0.00 37 987.9
20260504025039 17 360 17.7 25.7 0.00 0.00 0.00 36 987.8
20260504024542 18 288 17.7 24.1 0.00 0.00 0.00 36 987.7
20260504024037 18 265 20.9 29.0 0.00 0.00 0.00 35 987.7
20260504023036 18 279 20.9 32.2 0.00 0.00 0.00 34 987.8
20260504022538 19 287 22.5 35.4 0.00 0.00 0.00 33 987.6
20260504022034 19 292 24.1 35.4 0.00 0.00 0.00 32 987.7
20260504021533 20 292 22.5 37.0 0.00 0.00 0.00 30 987.7
20260504021031 20 281 24.1 35.4 0.00 0.00 0.00 29 987.7
20260504020530 20 265 22.5 37.0 0.00 0.00 0.00 28 987.6
20260504020030 21 292 25.7 46.7 0.00 0.00 0.00 27 987.5
20260504015528 21 360 35.4 46.7 0.00 0.00 0.00 26 987.5
20260504015028 21 267 25.7 41.8 0.00 0.00 0.00 26 987.4
20260504014526 21 253 30.6 41.8 0.00 0.00 0.00 25 987.3
20260504014026 21 260 27.4 41.8 0.00 0.00 0.00 25 987.3
20260504013026 21 254 29.0 48.3 0.00 0.00 0.00 24 987.4
20260504012524 21 247 25.7 38.6 0.00 0.00 0.00 24 987.5
20260504012023 22 252 27.4 45.1 0.00 0.00 0.00 24 987.6
20260504011523 22 260 29.0 45.1 0.00 0.00 0.00 23 987.7
20260504011021 22 257 33.8 45.1 0.00 0.00 0.00 23 987.7
20260504010523 22 256 33.8 45.1 0.00 0.00 0.00 23 987.8
20260504010021 22 265 32.2 46.7 0.00 0.00 0.00 23 987.8
20260504005520 22 256 32.2 46.7 0.00 0.00 0.00 23 987.8
20260504005020 22 245 35.4 54.7 0.00 0.00 0.00 24 987.8
20260504004522 22 360 37.0 54.7 0.00 0.00 0.00 25 987.9
20260504004019 22 246 32.2 46.7 0.00 0.00 0.00 26 988.0
20260504003018 22 252 35.4 48.3 0.00 0.00 0.00 26 987.9
20260504002517 23 249 33.8 48.3 0.00 0.00 0.00 25 988.0
20260504002016 23 238 30.6 46.7 0.00 0.00 0.00 25 988.2
20260504001516 23 238 32.2 51.5 0.00 0.00 0.00 25 988.3
20260504001017 23 240 38.6 51.5 0.00 0.00 0.00 25 988.3
20260504000515 23 252 35.4 56.3 0.00 0.00 0.00 25 988.5
20260504000015 23 260 41.8 56.3 0.00 0.00 0.00 24 988.4
20260503235513 23 267 41.8 56.3 0.00 0.00 0.00 24 988.7
20260503235013 23 266 38.6 61.2 0.00 0.00 0.00 25 988.7
20260503234513 23 247 46.7 61.2 0.00 0.00 0.00 25 988.8
20260503234012 23 237 35.4 49.9 0.00 0.00 0.00 25 988.7
20260503233012 23 261 33.8 54.7 0.00 0.00 0.00 24 989.1
20260503232511 23 246 41.8 49.9 0.00 0.00 0.00 23 989.1
20260503232011 23 240 30.6 56.3 0.00 0.00 0.00 24 989.2
20260503231516 23 246 40.2 56.3 0.00 0.00 0.00 23 989.3
20260503231010 23 244 37.0 51.5 0.00 0.00 0.00 23 989.5
20260503230509 23 267 33.8 53.1 0.00 0.00 0.00 22 989.5
20260503230008 23 259 33.8 53.1 0.00 0.00 0.00 21 989.6
20260503225506 23 269 40.2 53.1 0.00 0.00 0.00 20 989.8
20260503225009 23 243 35.4 48.3 0.00 0.00 0.00 20 989.7
20260503224505 23 287 32.2 48.3 0.00 0.00 0.00 20 989.9
20260503224005 23 288 32.2 49.9 0.00 0.00 0.00 21 990.0
20260503223004 22 254 30.6 49.9 0.00 0.00 0.00 20 990.2
20260503222503 23 270 37.0 49.9 0.00 0.00 0.00 22 990.2
20260503222004 23 255 32.2 49.9 0.00 0.00 0.00 23 990.3
20260503221502 22 265 33.8 49.9 0.00 0.00 0.00 24 990.5
20260503221001 22 250 32.2 46.7 0.00 0.00 0.00 24 990.4
20260503220502 22 260 35.4 46.7 0.00 0.00 0.00 22 990.6
20260503220000 22 360 32.2 48.3 0.00 0.00 0.00 25 990.4
20260503215500 22 257 35.4 56.3 0.00 0.00 0.00 27 990.5
20260503215201 23 251 38.6 57.9 0.00 0.00 0.00 24 990.7
20260503214559 23 274 43.5 57.9 0.00 0.00 0.00 25 990.7
20260503214059 23 260 37.0 51.5 0.00 0.00 0.00 25 990.8
20260503213133 23 266 40.2 53.1 0.00 0.00 0.00 23 991.0
20260503212601 23 268 43.5 53.1 0.00 0.00 0.00 24 991.0
20260503212100 23 263 38.6 51.5 0.00 0.00 0.00 23 991.3
20260503211620 22 271 37.0 49.9 0.00 0.00 0.00 26 991.3
20260503211054 22 258 32.2 49.9 0.00 0.00 0.00 27 991.4
20260503210555 23 246 35.4 49.9 0.00 0.00 0.00 25 991.5
20260503210054 23 223 35.4 51.5 0.00 0.00 0.00 27 991.5
20260503205553 23 259 37.0 51.5 0.00 0.00 0.00 27 991.5
20260503205052 22 242 38.6 54.7 0.00 0.00 0.00 28 991.6
20260503204603 23 230 37.0 54.7 0.00 0.00 0.00 28 991.6
20260503204051 23 254 38.6 54.7 0.00 0.00 0.00 26 991.6
20260503203049 23 259 35.4 53.1 0.00 0.00 0.00 27 992.0
20260503202547 23 240 37.0 56.3 0.00 0.00 0.00 29 992.1
20260503202051 23 236 37.0 56.3 0.00 0.00 0.00 28 992.3
20260503201545 23 231 37.0 51.5 0.00 0.00 0.00 27 992.4
20260503201045 23 238 32.2 53.1 0.00 0.00 0.00 27 992.6
20260503200545 23 232 43.5 53.1 0.00 0.00 0.00 29 992.5
20260503200045 22 238 35.4 46.7 0.00 0.00 0.00 29 992.8
20260503195544 22 236 30.6 53.1 0.00 0.00 0.00 30 992.9
20260503195043 23 244 40.2 53.1 0.00 0.00 0.00 28 992.9
20260503194543 23 243 33.8 49.9 0.00 0.00 0.00 27 993.1
20260503194042 22 239 32.2 49.9 0.00 0.00 0.00 29 993.2
20260503193042 22 360 32.2 51.5 0.00 0.00 0.00 30 993.4
20260503192541 22 257 35.4 54.7 0.00 0.00 0.00 30 993.6
20260503192039 22 240 38.6 54.7 0.00 0.00 0.00 28 993.8
20260503191555 22 252 33.8 51.5 0.00 0.00 0.00 29 993.9
20260503191038 23 238 38.6 51.5 0.00 0.00 0.00 27 994.0
20260503190537 22 240 32.2 48.3 0.00 0.00 0.00 27 994.0
20260503190038 22 244 33.8 57.9 0.00 0.00 0.00 29 994.2
20260503185537 22 247 32.2 49.9 0.00 0.00 0.00 29 994.3
20260503185037 22 245 37.0 49.9 0.00 0.00 0.00 30 994.8
20260503184536 22 246 33.8 43.5 0.00 0.00 0.00 29 994.6
20260503184036 21 245 35.4 53.1 0.00 0.00 0.00 31 994.5
20260503183041 21 244 37.0 53.1 0.00 0.00 0.00 31 995.1
20260503182533 21 250 27.4 46.7 0.00 0.00 0.00 31 995.1
20260503182032 21 251 32.2 45.1 0.00 0.00 0.00 31 995.3
20260503181532 21 240 30.6 38.6 0.00 0.00 0.00 30 995.1
20260503181033 21 228 29.0 45.1 0.00 0.00 0.00 31 995.3
20260503180530 21 238 30.6 46.7 0.00 0.00 0.00 31 995.4
20260503180033 21 209 32.2 46.7 0.00 0.00 0.00 29 995.5
20260503175529 21 240 22.5 41.8 0.00 0.00 0.00 32 995.5
20260503175028 21 260 32.2 51.5 0.00 0.00 0.00 31 995.7
20260503174537 21 223 33.8 48.3 0.00 0.00 0.00 31 995.9
20260503174027 21 214 30.6 45.1 0.00 0.00 0.00 32 996.3
20260503173027 20 236 37.0 53.1 0.00 0.00 0.00 31 996.4
20260503172525 20 257 33.8 45.1 0.00 0.00 0.00 31 996.4
20260503172024 20 279 25.7 41.8 0.00 0.00 0.00 31 996.5
20260503171529 20 266 29.0 41.8 0.00 0.00 0.00 31 996.8
20260503171029 20 216 20.9 40.2 0.00 0.00 0.00 32 996.7
20260503170523 20 219 25.7 46.7 0.00 0.00 0.00 32 996.9
20260503150516 17 241 27.4 41.8 0.00 0.00 0.00 35 998.7
20260503131008 5 360 9.7 14.5 0.00 0.00 0.00 65 999.6
20260503130515 5 360 11.3 14.5 0.00 0.00 0.00 65 999.5
20260503110554 6 360 11.3 16.1 0.00 0.00 0.00 57 1000.1
20260503081552 7 360 8.0 11.3 0.00 0.00 0.00 51 1000.9
20260503081036 7 360 9.7 11.3 0.00 0.00 0.00 51 1001.0
20260503080536 7 360 8.0 11.3 0.00 0.00 0.00 52 1000.9
20260503072534 8 360 4.8 8.0 0.00 0.00 0.00 47 1001.2
20260503072034 9 360 4.8 8.0 0.00 0.00 0.00 45 1001.3
20260503071556 10 360 3.2 4.8 0.00 0.00 0.00 44 1001.3
20260503071036 10 360 3.2 4.8 0.00 0.00 0.00 44 1001.3
20260503070535 10 360 1.6 4.8 0.00 0.00 0.00 45 1001.3
20260503055025 10 360 9.7 11.3 0.00 0.00 0.00 43 1001.2
20260503054533 11 360 9.7 11.3 0.00 0.00 0.00 43 1001.3
20260503054025 11 360 9.7 11.3 0.00 0.00 0.00 43 1001.3
20260503053026 11 360 9.7 11.3 0.00 0.00 0.00 43 1001.3
20260503052526 11 360 9.7 11.3 0.00 0.00 0.00 43 1001.2
20260503052026 10 360 9.7 11.3 0.00 0.00 0.00 44 1001.2
20260503051535 10 360 9.7 12.9 0.00 0.00 0.00 44 1001.2
20260503051027 10 360 11.3 12.9 0.00 0.00 0.00 45 1001.2
20260503050525 10 360 11.3 12.9 0.00 0.00 0.00 45 1001.3
20260503050025 10 360 9.7 11.3 0.00 0.00 0.00 45 1001.3
20260503045525 10 360 9.7 12.9 0.00 0.00 0.00 45 1001.2
20260503045030 10 360 9.7 12.9 0.00 0.00 0.00 45 1001.3
20260503044525 10 360 11.3 12.9 0.00 0.00 0.00 45 1001.3
20260503044024 10 360 9.7 12.9 0.00 0.00 0.00 45 1001.4
20260503043024 9 360 9.7 12.9 0.00 0.00 0.00 46 1001.2
20260503042523 9 360 11.3 12.9 0.00 0.00 0.00 46 1001.3
20260503042024 9 360 11.3 12.9 0.00 0.00 0.00 46 1001.4
20260503041529 9 360 11.3 14.5 0.00 0.00 0.00 47 1001.4
20260503041024 9 360 11.3 14.5 0.00 0.00 0.00 47 1001.3
20260503040527 8 360 11.3 14.5 0.00 0.00 0.00 47 1001.4
20260503040023 9 360 11.3 14.5 0.00 0.00 0.00 47 1001.4